This demonstration page uses our WeatherBlox Daily Observations layout. Learn more.

Left ArrowRight Arrow

39.92423, -83.80882

Hourly Observations for January 21, 2017

Temp ( °F °C ) Dew Point ( °F °C ) Humidity (%) Winds ( mph kmh ) Pressure ( in mb ) Visibility ( mi km ) Precip ( " mm )
12:56 am 00:56 Cloudy 50 10 47 8.3 89 89 SSE 9 15 29.77 1008 10 16.0934 0 0
1:56 am 01:56 Mostly Cloudy 49 9.4 46 7.8 90 90 SE 8 13 29.76 1008 10 16.0934 0 0
2:56 am 02:56 Mostly Cloudy 50 10 46 7.8 86 86 S 9 15 29.76 1008 10 16.0934 0 0
3:56 am 03:56 Partly Cloudy 50 10 46 7.8 86 86 S 7 11 29.76 1008 10 16.0934 0 0
4:56 am 04:56 Mostly Cloudy 48 8.9 46 7.8 93 93 SSE 7 11 29.73 1007 10 16.0934 0 0
5:56 am 05:56 Clear 48 8.9 45 7.2 89 89 S 9 15 29.72 1007 10 16.0934 0 0
6:33 am 06:33 Mostly Cloudy 48 9 46 8 94 94 S 5 7 29.74 1007 10 16.0934 0 0
6:56 am 06:56 Partly Cloudy 47 8.3 45 7.2 93 93 SSE 9 15 29.73 1007 10 16.0934 0 0
7:56 am 07:56 Sunny 47 8.3 45 7.2 93 93 S 6 9 29.73 1007 10 16.0934 0 0
8:56 am 08:56 Sunny 50 10 47 8.3 89 89 S 6 9 29.74 1007 10 16.0934 0 0
9:56 am 09:56 Sunny 54 12.2 50 10 87 87 S 7 11 29.72 1007 10 16.0934 0 0
10:56 am 10:56 Sunny 55 12.8 51 10.6 87 87 S 8 13 29.73 1007 10 16.0934 0 0
11:56 am 11:56 Sunny 57 13.9 52 11.1 83 83 S 9 15 29.7 1006 10 16.0934 0 0
12:56 pm 12:56 Sunny 58 14.4 51 10.6 78 78 SSW 7 11 29.67 1005 10 16.0934 0 0
1:56 pm 13:56 Sunny 59 15 51 10.6 75 75 S 5 7 29.66 1004 10 16.0934 0 0
2:56 pm 14:56 Sunny 59 15 52 11.1 78 78 SSE 8 13 29.65 1004 10 16.0934 0 0
3:56 pm 15:56 Mostly Sunny 58 14.4 52 11.1 81 81 SSE 8 13 29.64 1004 10 16.0934 0 0
4:56 pm 16:56 Mostly Cloudy 58 14.4 52 11.1 81 81 S 9 15 29.65 1004 10 16.0934 0 0
5:08 pm 17:08 Mostly Cloudy with Thunderstorms 57 14 54 12 88 88 SSE 9 15 29.62 1003 9 14.48406 0 0.0254
5:33 pm 17:33 Cloudy 57 14 54 12 88 88 SSE 9 15 29.62 1003 10 16.0934 0.1 2.54
5:56 pm 17:56 Cloudy 56 13.3 53 11.7 90 90 SSE 10 17 29.64 1004 10 16.0934 0.1 2.54
6:56 pm 18:56 Cloudy 56 13.3 53 11.7 90 90 SSE 9 15 29.64 1004 10 16.0934 0 0
7:56 pm 19:56 Cloudy 55 12.8 52 11.1 90 90 SSE 3 6 29.65 1004 10 16.0934 0 0
8:56 pm 20:56 Cloudy 54 12.2 52 11.1 93 93 SE 7 11 29.65 1004 10 16.0934 0 0
9:56 pm 21:56 Cloudy 55 12.8 51 10.6 87 87 S 3 6 29.66 1004 10 16.0934 0 0
10:56 pm 22:56 Cloudy 54 12.2 51 10.6 90 90 SSE 6 9 29.66 1004 10 16.0934 0 0.0254
11:56 pm 23:56 Cloudy 55 12.8 51 10.6 87 87 SSE 5 7 29.66 1005 10 16.0934 0 0

Powered by AerisWeather